Aeroporto :
LOGIN :

Iscrizione | Disclaimer

   EN    FR    IT 

 










Sommario :    VFR   VFR Marginale   IFR   IFR Intensivo   IFR Molto Intensivo
Visibilità : 
Base nubi : 
>= 8 km
>= 3000ft
5 / 8 km
1000 / 3000 ft
1500m / 5 km
500 / 1000 ft
800 / 1500m
200 / 500 ft
< 800m
< 200 ft
Simboli :   Temporali  Nebbia  Neve Forte  Precipitazioni Forti  Vento > 20 kt
SIGMETs :   Varie  Temporali  Ghiacco  Turbolenza  Onda orograficha  Ceneri Vulcaniche






- Altitudine del aeroporto : 265 ft


LFMC - Le Luc

ULTIMO METAR :
  • 141830Z AUTO 06013KT 9999 -RA FEW014/// BKN039/// BKN050/// ///TCU 10/09 Q0996

METARs OBSOLETI :
  • 141800Z AUTO 06014KT 9999 -RA FEW010/// SCT052/// ///CB 10/09 Q0996
  • 141730Z AUTO 05016KT 9999 RA FEW031/// BKN038/// BKN044/// ///CB 10/09 Q0996
  • 141700Z AUTO 05009KT 9999 -RA SCT052/// ///CB 10/09 Q0997
  • 141630Z AUTO 06008KT 6000 +RA FEW044/// BKN054/// ///CB 09/09 Q0998
  • 141600Z AUTO 05011KT 5000 +RA BR FEW016/// SCT040/// BKN046/// ///CB 09/08 Q0998

TAF N/A



MetMap, La meteo Aeronautica in un colpo d'occhio ! - Copyright ORBIFLY Dicembre 2007 - Disclaimer

ORBIFLY MET'MAP TEAM :

Programmazione e sviluppo : Alexandra Zaïnal
Concezione e sviluppo : Baudouin d'Aumeries
Co-Programmazione e sviluppo : Marc-Olivier Méhu
Supporto tecnico e logistico : Manuel Goepfert
Aiuto per la traduzione : Arnaldo La Scala

Contatto : metmap@orbifly.com




FONTI E CREDITI :

   NOAA